Regional Weather Roundup
Issued by NWS

Home | Current Version | Previous Version | Graphics & Text | Print | Product List | Glossary On
Versions: 1 2 3 4 5 6 7 8 9 10 11 12 13 14 15 16 17 18 19 20 21 22 23 24 25 26 27 28 29 30 31 32 33 34 35 36 37 38 39 40 41 42 43 44 45 46 47 48 49 50
000
ASUS43 KFSD 051802
RWRSD

WEATHER ROUNDUP FOR SOUTH DAKOTA
NATIONAL WEATHER SERVICE SIOUX FALLS SD
100 PM CDT SUN JUL 05 2015

NOTE: "FAIR" INDICATES FEW OR NO CLOUDS BELOW 12,000 FEET WITH NO
SIGNIFICANT WEATHER AND/OR OBSTRUCTIONS TO VISIBILITY.


SDZ001>005-009-010-012>017-051900-
NORTHWEST AND NORTH CENTRAL SOUTH DAKOTA

CITY           SKY/WX    TMP DP  RH WIND       PRES   REMARKS
BUFFALO          N/A     78  59  51 N14       29.85R
FAITH            N/A     70  63  78 NE20G29   29.85R
MOBRIDGE       CLOUDY    77  67  71 N20G29    29.78F
$$

SDZ012>016-024>037-041>051-057-063-072>074-051900-
SOUTHWEST AND SOUTH CENTRAL SOUTH DAKOTA

CITY           SKY/WX    TMP DP  RH WIND       PRES   REMARKS
RAPID CTY ARPT CLOUDY    79  63  57 NE16      29.88R
PIERRE         CLOUDY    83  69  62 E7        29.76F
CUSTER         CLOUDY    75  58  55 E16       30.00R
ELLSWORTH AFB  CLOUDY    79  64  61 N13       29.89
PHILIP         MOSUNNY   83  66  56 NE12      29.82R
PINE RIDGE     PTSUNNY   86  69  56 N7        29.83R
WINNER         FAIR      91  65  41 SE10      29.77R
$$

SDZ004>011-016>023-039-040-051900-
NORTHEAST SOUTH DAKOTA

CITY           SKY/WX    TMP DP  RH WIND       PRES   REMARKS
ABERDEEN       SUNNY     86  72  62 SW10      29.77R
WATERTOWN      MOSUNNY   86  68  54 SW21      29.79R
BROOKINGS      SUNNY     82  68  61 S14G25    29.83R
SISSETON         N/A     87  66  49 W8        29.76S
$$

SDZ017-020-022-023-036>040-048>070-051900-
SOUTHEAST SOUTH DAKOTA

CITY           SKY/WX    TMP DP  RH WIND       PRES   REMARKS
SIOUX FALLS    MOSUNNY   86  66  51 S16       29.79F
HURON          SUNNY     86  71  60 SW14      29.77R
CHAMBERLAIN    MOSUNNY   84  72  66 S9        29.78R
MITCHELL       MOSUNNY   88  70  55 S15G23    29.76F
YANKTON        MOSUNNY   88  66  48 S20       29.76S
$$

ABBREVIATIONS USED IN REMARKS
   TC - TEMPERATURE IN CELSIUS
  WCI - WIND CHILL INDEX
   HX - HEAT INDEX
  VSB - VISIBILITY




USA.gov is the U.S. government's official web portal to all federal, state and local government web resources and services.